Regional Weather Roundup
Issued by NWS Little Rock, AR

Home | Current Version | Previous Version | Text Only | Print | Product List | Glossary On
Versions: 1 2 3 4 5 6 7 8 9 10 11 12 13 14 15 16 17 18 19 20 21 22 23 24 25 26 27 28 29 30 31 32 33 34 35 36 37 38 39 40 41 42 43 44 45 46 47 48
000
ASUS44 KLZK 041605
RWRLZK

WEATHER ROUNDUP FOR ARKANSAS
NATIONAL WEATHER SERVICE LITTLE ROCK AR
1100 AM CDT MON MAY 04 2015

NOTE: "FAIR" INDICATES FEW OR NO CLOUDS BELOW 12,000 FEET WITH NO
SIGNIFICANT WEATHER AND/OR OBSTRUCTIONS TO VISIBILITY.

ARZ001-003-010-029-041700-
NORTHWEST ARKANSAS

CITY           SKY/WX    TMP DP  RH WIND       PRES   REMARKS
FAYETTEVILLE   MOSUNNY   74  64  71 S15G25    30.16R
FORT SMITH     MOSUNNY   76  61  59 SW10      30.14R
HARRISON       SUNNY     75  58  55 S12       30.17R
BENTONVILLE    PTSUNNY   73  59  60 S13       30.16R
ROGERS         PTSUNNY   75  61  61 SW14G23   30.16R
SILOAM SPGS    PTSUNNY   73  59  60 SW14      30.16R
HIGHFILL       PTSUNNY   74  61  63 SW13      30.14R
SPRINGDALE     PTSUNNY   75  61  60 S12G23    30.17R
$$

ARZ004-005-016-041700-
NORTH CENTRAL ARKANSAS

CITY           SKY/WX    TMP DP  RH WIND       PRES   REMARKS
BATESVILLE     SUNNY     79  57  47 S10       30.19R
FLIPPIN        PTSUNNY   79  57  47 SW12G17   30.15R
MTN HOME       PTSUNNY   77  58  51 S10       30.17R
$$

ARZ040-041-041700-
WEST CENTRAL ARKANSAS

CITY           SKY/WX    TMP DP  RH WIND       PRES   REMARKS
MENA           MOSUNNY   77  63  61 SW3       30.19R
MOUNT IDA      SUNNY     75  60  59 VRB6      30.16R
$$

ARZ009-017-025-026-028-041700-
NORTHEAST ARKANSAS

CITY           SKY/WX    TMP DP  RH WIND       PRES   REMARKS
CORNING          N/A     81  59  47 S18       30.19R
JONESBORO      SUNNY     77  62  59 SW12      30.19R
NEWPORT        SUNNY     80  61  52 S8        30.20R
WALNUT RIDGE   SUNNY     79  59  50 SW15      30.19R
BLYTHEVILLE    CLOUDY    79  60  52 SW8       30.21R
NW BLYTHEVILLE SUNNY     81  59  47 SW12      30.21R
$$

ARZ022-023-033-042-044-041700-
CENTRAL ARKANSAS

CITY           SKY/WX    TMP DP  RH WIND       PRES   REMARKS
LITTLE ROCK    MOSUNNY   80  59  48 S8        30.19R
N LITTLE ROCK  MOSUNNY   76  64  66 S6        30.19R
SEARCY         SUNNY     77  62  59 SW6       30.20R
HOT SPRINGS    SUNNY     76  60  57 VRB3      30.19R
RUSSELLVILLE   MOSUNNY   75  61  61 SW8       30.18R
CLINTON        FAIR      77  61  57 SW7       30.19S
$$

ARZ036-041700-
EAST ARKANSAS

CITY           SKY/WX    TMP DP  RH WIND       PRES   REMARKS
WEST MEMPHIS   SUNNY     78  62  57 S9        30.21R
$$

ARZ050-053-066-070-073-041700-
SOUTHWEST ARKANSAS

CITY           SKY/WX    TMP DP  RH WIND       PRES   REMARKS
ARKADELPHIA    FAIR      77  64  63 VRB3      30.20S
CAMDEN         SUNNY     77  57  50 CALM      30.20S
TEXARKANA      SUNNY     75  62  64 S9        30.19R
EL DORADO      SUNNY     76  56  49 SW7       30.20S
DE QUEEN       MOSUNNY   74  60  61 SW8       30.16S
$$

ARZ056-057-069-041700-
SOUTHEAST ARKANSAS

CITY           SKY/WX    TMP DP  RH WIND       PRES   REMARKS
PINE BLUFF     SUNNY     77  61  57 VRB3      30.20S
STUTTGART      SUNNY     77  61  57 SW7       30.21R
MONTICELLO     SUNNY     75  61  61 VRB6      30.21S

$$




USA.gov is the U.S. government's official web portal to all federal, state and local government web resources and services.